Jackson, TN

3:04 PM CST on November 16, 2019 (GMT -0600)
McKellar-Sipes Regional

Weather History for KMKL - September, 2019

Change the Weather History Date:

Tuesday, September 10, 2019

  Actual Average Record
Temperature  
Mean Temperature 77 °F 74 °F  
Max Temperature 89 °F 86 °F 98 °F (1983)
Min Temperature 65 °F 61 °F 48 °F (1998)
Degree Days  
Heating Degree Days 0 0  
Month to date heating degree days 0 0  
Since 1 July heating degree days 0 0  
Cooling Degree Days 12 9  
Month to date cooling degree days 125 101  
Year to date cooling degree days 1586 1524  
Growing Degree Days 27 (Base 50)    
Moisture  
Dew Point 70 °F    
Average Humidity 82    
Maximum Humidity 100    
Minimum Humidity 50    
Precipitation  
Precipitation 0.00 in 0.11 in 0.72 in (1970)
Month to date precipitation 0.00 0.95  
Year to date precipitation 46.71 36.82  
Sea Level Pressure  
Sea Level Pressure 30.15 in    
Wind  
Wind Speed 1 mph ()    
Max Wind Speed 8 mph    
Max Gust Speed 11 mph    
Visibility 8.5 miles    
Events      
T = Trace of Precipitation, MM = Missing Value Source: Averaged Metar Reports

Daily Weather History Graph

Daily Weather History Graph

Search for Another Location

Airport or City:

Astronomy

Sep. 10, 2019 Rise Set
Actual Time 6:34 AM CDT 7:10 PM CDT
Civil Twilight 6:08 AM CDT 7:36 PM CDT
Nautical Twilight 5:38 AM CDT 8:06 PM CDT
Astronomical Twilight 5:07 AM CDT 8:37 PM CDT
Moon 5:38 PM CDT (9/10) 3:09 AM CDT (9/10)
Length of Visible Light 13h 27m
Length of Day
12h 35m
Waxing Gibbous, 89% of the Moon is Illuminated
Sep 10
Waxing Gibbous
Sep 13
Full
Sep 21
Last Quarter
Sep 28
New
Oct 5
First Quarter

Hourly Weather History & Observations

Time (CDT) Temp. Heat Index Dew Point Humidity Pressure Visibility Wind Dir Wind Speed Gust Speed Precip Events Conditions
12:53 AM 71.1 °F - 70.0 °F 96% 30.10 in 8.0 mi Calm Calm - N/A   Clear
1:00 AM 69.1 °F - 68.0 °F 96% 30.12 in 1.8 mi Calm Calm - N/A   Clear
1:08 AM 70.0 °F - 69.1 °F 97% 30.12 in 4.0 mi Calm Calm - N/A   Clear
1:53 AM 69.1 °F - 68.0 °F 96% 30.11 in 9.0 mi Calm Calm - N/A   Clear
2:53 AM 69.1 °F - 66.9 °F 93% 30.10 in 9.0 mi Calm Calm - N/A   Clear
3:53 AM 68.0 °F - 66.9 °F 96% 30.12 in 8.0 mi Calm Calm - N/A   Clear
4:53 AM 66.9 °F - 66.0 °F 97% 30.12 in 4.0 mi Calm Calm - N/A   Clear
5:53 AM 66.0 °F - 64.9 °F 96% 30.14 in 4.0 mi Calm Calm - N/A   Clear
6:53 AM 66.0 °F - 64.9 °F 96% 30.14 in 6.0 mi Calm Calm - N/A   Clear
7:53 AM 72.0 °F - 70.0 °F 93% 30.17 in 9.0 mi Calm Calm - N/A   Clear
8:53 AM 79.0 °F - 72.0 °F 79% 30.17 in 10.0 mi Calm Calm - N/A   Clear
9:53 AM 81.0 °F 85.2 °F 72.0 °F 74% 30.19 in 10.0 mi Calm Calm - N/A   Clear
10:53 AM 82.0 °F 87.4 °F 73.0 °F 74% 30.20 in 10.0 mi South 4.6 mph - N/A   Clear
11:53 AM 84.0 °F 88.4 °F 70.0 °F 63% 30.20 in 10.0 mi SSW 5.8 mph - N/A   Partly Cloudy
12:53 PM 87.1 °F 89.9 °F 66.9 °F 51% 30.19 in 10.0 mi WSW 5.8 mph - N/A   Clear
1:53 PM 84.9 °F 88.8 °F 69.1 °F 59% 30.18 in 10.0 mi South 4.6 mph - N/A   Clear
2:53 PM 87.1 °F 92.8 °F 71.1 °F 59% 30.17 in 10.0 mi ESE 5.8 mph - N/A   Clear
3:53 PM 87.1 °F 93.6 °F 72.0 °F 61% 30.16 in 10.0 mi East 4.6 mph - N/A   Clear
4:53 PM 87.1 °F 93.6 °F 72.0 °F 61% 30.15 in 10.0 mi SE 4.6 mph - N/A   Clear
5:53 PM 87.1 °F 93.6 °F 72.0 °F 61% 30.15 in 10.0 mi South 4.6 mph - N/A   Clear
6:53 PM 82.0 °F 87.9 °F 73.9 °F 76% 30.15 in 10.0 mi Calm Calm - N/A   Clear
7:53 PM 75.0 °F - 73.0 °F 94% 30.15 in 10.0 mi Calm Calm - N/A   Clear
8:53 PM 73.9 °F - 72.0 °F 93% 30.16 in 10.0 mi SSW 3.5 mph - N/A   Clear
9:53 PM 73.0 °F - 72.0 °F 96% 30.18 in 9.0 mi SSE 3.5 mph - N/A   Clear
10:53 PM 73.9 °F - 71.1 °F 91% 30.18 in 10.0 mi SSE 3.5 mph - N/A   Clear
11:53 PM 73.9 °F - 71.1 °F 91% 30.17 in 10.0 mi Calm Calm - N/A   Clear